Погода в Островской

Россия / Волгоградская область     50°26′27″N   44°26′36″E
темп.,
°C
ветер,
м/с
пор.,
м/с
влажн.,
%
обл.,
%
осадки,
мм/ч
давл.,
гПа
погр.,
м
12 апреля, пн
пн1200:00+12всв348597 0.0 102537
03:00+11в3482100 0.0 102539
06:00+10в477198 0.0 1026105
09:00+16вюв6125086 0.0 1027433
12:00+20вюв8113756 0.0 10271244
15:00+21вюв8113256 0.0 10271758
18:00+17вюв5104618 0.0 1027210
21:00+13вюв5144822 0.0 1028253
13 апреля, вт
вт1300:00+11вюв6155423 0.0 1029258
03:00+9вюв513605 0.0 1029216
06:00+9вюв512645 0.0 1029202
09:00+15вюв710430 0.0 1029438
12:00+19вюв793342 0.0 10291187
15:00+20вюв7929100 0.0 10271573
18:00+16вюв484766 0.0 1026146
21:00+12в4135735 0.0 1027213
14 апреля, ср
ср1400:00+11в5136017 0.0 1026243
03:00+9в4126335 0.0 1025200
06:00+8в512635 0.0 1025197
09:00+14вюв710445 0.0 1024460
12:00+18вюв78320 0.0 10231180
15:00+19вюв67301 0.0 10211604
18:00+17в47460 0.0 1020152
21:00+12в410560 0.0 1020143
15 апреля, чт
чт1500:00+11в410614 0.0 1019161
03:00+10вюв49700 0.0 1019146
06:00+9в49730 0.0 1019145
09:00+16вюв68501 0.0 1018505
12:00+19вюв67390 0.0 10161034
15:00+21юв45320 0.0 10151736
18:00+19в33431 0.0 101439
21:00+14в46502 0.0 101469
16 апреля, пт
пт1600:00+13вюв410595 0.0 1013145
03:00+12вюв41062100 0.0 1012176
06:00+11ююв336624 0.0 101246
09:00+16ююз34495 0.0 1013496
12:00+19юз4645100 0.0 10121488
15:00+20юз5542100 0.0 10122025
18:00+17юз355484 0.0 1012126
21:00+14зюз6107085 0.1 1012446